FENGYUN 1C DEB, 31244

Orbit data source: Space-Track

FENGYUN 1C DEB, 31244 is space debris in SSO originally from a launch on Mon, 10 May 1999 UTC launched from the Taiyaun Space Center, China (TSC). Fengyun 1C debris stems from the Chinese weather satellite Fengyun-1C, which was intentionally destroyed by a Chinese anti-satellite missile in 2007. This event dramatically increased the amount of space debris, with thousands of trackable fragments posing hazards to satellites and human spaceflight. The Fengyun 1C debris cloud has become a focal point in discussions about space sustainability and the need for international regulations to prevent the creation of new debris.

Loading next visibility...
Identifier
31244, 1999-025BMA
Orbit
SSO
Country
Flag of CNCN / PRC
Related business
Manufacturer
Unknown
Mission
Spacecraft
Bus & Motor
Unknown
Mass
Unknown
Launch date (UTC)
1999-05-10 (27 years ago)
Launch vehicle
Unknown
Launch site
Taiyaun Space Center, China (TSC)
Object type
Payload
Rocket body
Debris
Shape & HBR
Unknown shape, 0.1 m
Radar Cross Section
Small (<0.1 m²)

Expand to show TLE details & history
Last TLE update: 1 week ago

TLE from 1 week ago
0 FENGYUN 1C DEB
1 31244U 99025BMA 25341.93167294  .00000780  00000-0  47777-3 0  9995
2 31244  99.0370  45.5611 0102317 188.3350 171.6122 14.06237413575725
Epoch: 2025-12-07T22:21Z
TLE epoch observation values (Epoch: 2025-12-07T22:21:36.542Z)
Latitude
Longitude
-6.77913°
Altitude
948.582 km
Speed
7.34 km/s
True Right ascension
03h 02m 14s
True Declination
0° 00' 00"
Sunlit
Object was in full shadow at epoch
Visualization orbit readout
Latitude
Unknown
Longitude
Unknown
Altitude
Unknown
Speed
Unknown
Apparent Right ascension
Unknown
Apparent Declination
Unknown
Sunlit
N/A
Visualization observer readout
Local Sidereal Time
22:57:50
Azimuth
Unknown
Elevation
Unknown
Doppler factor
Unknown
Orbital elements
Apogee altitude
943.624 km
Perigee altitude
795.313 km
Semi-major axis
7,247.605 km
Eccentricity
0.01023
Inclination
99.037°
RAAN
45.5611°
Arg. of periapsis
188.335°
True anomaly
171.78109°
Mean anomaly
171.6122°
Eccentric anomaly
171.69686°
Mean motion
3.51764 °/min
Orbital period
102.34 mins
BSTAR
0.00047777
Loading maneuver chart data...
Computing Atmospheric mass density...

Documentation

Showing up to 5 results
|